Hourly Data Report for September 28, 2017

All times are specified in Local Standard Time (LST). Add 1 hour to adjust for Daylight Saving Time where and when it is observed.

MIRAMICHI RCS
NEW BRUNSWICK

47°00'34.000" N
65°27'54.000" W
33.00 m
8100989
71744
ACQ

Download Data

Hourly Data (September 2017)
Hourly Data Report for September 28, 2017
Temp Definition
°C
Dew Point Temp Definition
°C
Rel Hum Definition
%
Wind Dir Definition
10's deg

Wind Spd Definition
km/h
Visibility Definition
km
Stn Press Definition
kPa
Hmdx Definition


Wind Chill Definition


Weather Definition


TIME
00:00 16.5 15.8 96 0 1   99.92     LegendNANA
01:00 16.5 16.0 97 18 7   99.85     LegendNANA
02:00 17.1 16.7 98 21 11   99.86     LegendNANA
03:00 17.6 16.9 96 24 17   99.84     LegendNANA
04:00 17.2 15.9 92 22 16   99.77     LegendNANA
05:00 16.2 14.8 92 22 19   99.79     LegendNANA
06:00 15.7 14.7 94 24 15   99.70     LegendNANA
07:00 15.5 14.8 96 26 13   99.69     LegendNANA
08:00 15.4 12.3 82 30 9   99.68     LegendNANA
09:00 14.1 11.4 84 28 10   99.71     LegendNANA
10:00 15.0 11.2 78 26 13   99.76     LegendNANA
11:00 15.8 11.3 75 26 13   99.79     LegendNANA
12:00 16.3 9.5 64 28 20   99.82     LegendNANA
13:00 17.4 10.5 64 26 14   99.80     LegendNANA
14:00 18.8 8.7 52 28 18   99.80     LegendNANA
15:00 16.8 7.5 54 29 19   99.84     LegendNANA
16:00 16.2 6.4 52 30 17   99.92     LegendNANA
17:00 14.7 5.5 54 30 13   100.00     LegendNANA
18:00 13.4 5.2 57 29 15   100.04     LegendNANA
19:00 12.9 5.2 59 27 11   100.04     LegendNANA
20:00 11.5 5.6 67 29 16   100.08     LegendNANA
21:00 10.7 5.2 69 29 16   100.08     LegendNANA
22:00 10.2 4.6 69 28 12   100.09     LegendNANA
23:00 8.8 4.9 76 27 10   100.13     LegendNANA

Notes on Data Quality.

Legend

  • E = Estimated
  • M = Missing
  • NA = Not Available
  • ‡ = Partner data that is not subject to review by the National Climate Archives
Date modified: